Showing default

KINEIS-1E, 60083

Orbit data source: Space-Track

KINEIS-1E, 60083 is a French payload satellite in SSO that was launched on Thu, 20 Jun 2024 UTC via an ELECTRON launch vehicle from the Rocket Lab Launch Complex (RLLC). Payload-class satellites include a variety of spacecraft equipped with specific instruments for various scientific and technological missions. These include communications satellites like Starlink; space stations such as the ISS; scientific satellites like the Hubble; Earth observation satellites from companies like Planet Labs, Umbra, and HawkEye 360; GPS; miniature CubeSats for education and research; and military/defense satellites.

Loading next visibility...
Identifier
60083, 2024-114E
Orbit
SSO
Country
Flag of FRFR
Related business
Manufacturer
KINEIS
Mission
Operational Commercial Communications
Bus & Motor
CUBESAT 16U, Unknown motor
Mass
28 kg wet, 28 kg dry
Launch date (UTC)
2024-06-20 (1 year ago)
Launch vehicle
ELECTRON
Launch site
Rocket Lab Launch Complex (RLLC)
Object type
Payload
Rocket body
Debris
Shape & HBR
Box + 2 Pan + 1 Ant, 1.0 m
Radar Cross Section
0.229 m², Medium (>0.1 m² and < 1m²)

Expand to show TLE details & history
Last TLE update: 7 hours ago

TLE from 7 hours ago
0 KINEIS-1E
1 60083U 24114E   25352.97759242  .00000711  00000-0  10051-3 0  9990
2 60083  97.9986  12.8364 0001279  45.2720 314.8596 14.80171082 80725
Epoch: 2025-12-18T23:27Z
TLE epoch observation values (Epoch: 2025-12-18T23:27:43.985Z)
Latitude
0.00003°
Longitude
-66.92223°
Altitude
631.171 km
Speed
7.543 km/s
True Right ascension
00h 51m 20s
True Declination
0° 00' 00"
Sunlit
Object was in daylight at epoch
Visualization orbit readout
Latitude
Unknown
Longitude
Unknown
Altitude
Unknown
Speed
Unknown
Apparent Right ascension
Unknown
Apparent Declination
Unknown
Sunlit
N/A
Visualization observer readout
Local Sidereal Time
05:03:31
Azimuth
Unknown
Elevation
Unknown
Doppler factor
Unknown
Orbital elements
Apogee altitude
626.725 km
Perigee altitude
624.933 km
Semi-major axis
7,003.966 km
Eccentricity
0.00013
Inclination
97.9986°
RAAN
12.8364°
Arg. of periapsis
45.272°
True anomaly
314.84921°
Mean anomaly
314.8596°
Eccentric anomaly
314.85441°
Mean motion
3.70277 °/min
Orbital period
97.22 mins
BSTAR
0.00010051
Loading maneuver chart data...
Computing Atmospheric mass density...
Loading historical data...
Loading historical data...
Loading historical data...
Loading historical data...
Loading historical data...
Loading historical data...
Loading historical data...

Documentation

Showing up to 5 results
|